Time,TemperatureF,DewpointF,PressureIn,WindDirection,WindDirectionDegrees,WindSpeedMPH,WindSpeedGustMPH,Humidity,HourlyPrecipIn,Conditions,Clouds,dailyrainin,SolarRadiationWatts/m^2,SoftwareType,DateUTC
2013-01-08 00:00:00,64.5,54.9,29.93,East,98,0.0,4.0,71,0.00,RA,SCT,0.00,0.0,WeatherDisplay:10.37,2013-01-08 10:00:00,
2013-01-08 00:10:00,63.7,54.1,29.92,East,92,2.0,7.0,71,0.00,CLR,SCT,0.00,0.0,WeatherDisplay:10.37,2013-01-08 10:10:00,
2013-01-08 00:20:00,63.2,54.0,29.92,East,86,2.0,6.0,72,0.00,CLR,SCT,0.00,0.0,WeatherDisplay:10.37,2013-01-08 10:20:00,
2013-01-08 00:30:00,62.8,54.0,29.91,East,98,3.0,10.0,73,0.00,CLR,SCT,0.00,0.0,WeatherDisplay:10.37,2013-01-08 10:30:00,
2013-01-08 00:40:00,63.2,54.0,29.91,East,86,3.0,12.0,72,0.00,CLR,SCT,0.00,0.0,WeatherDisplay:10.37,2013-01-08 10:40:00,
2013-01-08 00:50:00,62.9,53.8,29.91,SE,133,2.0,6.0,72,0.00,CLR,SCT,0.00,0.0,WeatherDisplay:10.37,2013-01-08 10:50:00,
2013-01-08 01:00:00,62.4,54.7,29.90,SE,134,1.0,9.0,76,0.00,CLR,SCT,0.00,0.0,WeatherDisplay:10.37,2013-01-08 11:00:00,
2013-01-08 01:10:00,62.1,54.1,29.90,ESE,103,1.0,6.0,75,0.00,CLR,SCT,0.00,0.0,WeatherDisplay:10.37,2013-01-08 11:10:00,
2013-01-08 01:20:00,61.8,54.2,29.90,ESE,116,3.0,6.0,76,0.00,CLR,SCT,0.00,0.0,WeatherDisplay:10.37,2013-01-08 11:20:00,
2013-01-08 01:30:00,61.4,54.5,29.90,East,81,0.0,7.0,78,0.00,CLR,SCT,0.00,0.0,WeatherDisplay:10.37,2013-01-08 11:30:00,
2013-01-08 01:40:00,60.9,54.3,29.89,ESE,106,1.0,5.0,79,0.00,CLR,SCT,0.00,0.0,WeatherDisplay:10.37,2013-01-08 11:40:00,
2013-01-08 01:50:00,61.3,53.3,29.88,East,100,7.0,15.0,75,0.00,CLR,SCT,0.00,0.0,WeatherDisplay:10.37,2013-01-08 11:50:00,
2013-01-08 02:00:00,63.7,54.2,29.88,East,86,8.0,15.0,71,0.00,CLR,SCT,0.00,0.0,WeatherDisplay:10.37,2013-01-08 12:00:00,
2013-01-08 02:10:00,65.1,55.5,29.87,East,82,6.0,12.0,71,0.00,CLR,SCT,0.00,0.0,WeatherDisplay:10.37,2013-01-08 12:10:00,
2013-01-08 02:20:00,64.9,54.9,29.87,ESE,102,0.0,5.0,70,0.00,CLR,SCT,0.00,0.0,WeatherDisplay:10.37,2013-01-08 12:20:00,
2013-01-08 02:30:00,63.3,54.5,29.88,SE,132,0.0,4.0,73,0.00,CLR,SCT,0.00,0.0,WeatherDisplay:10.37,2013-01-08 12:30:00,
2013-01-08 02:40:00,62.1,54.8,29.88,SE,133,0.0,3.0,77,0.00,CLR,SCT,0.00,0.0,WeatherDisplay:10.37,2013-01-08 12:40:00,
2013-01-08 02:50:00,61.1,54.2,29.88,ESE,119,5.0,7.0,78,0.00,CLR,SCT,0.00,0.0,WeatherDisplay:10.37,2013-01-08 12:50:00,
2013-01-08 03:00:00,60.4,53.9,29.87,ESE,105,2.0,5.0,79,0.00,CLR,SCT,0.00,0.0,WeatherDisplay:10.37,2013-01-08 13:00:00,
2013-01-08 03:10:00,60.0,53.5,29.87,ESE,110,1.0,4.0,79,0.00,CLR,SCT,0.00,0.0,WeatherDisplay:10.37,2013-01-08 13:10:00,
2013-01-08 03:20:00,59.6,53.8,29.86,ESE,109,2.0,4.0,81,0.00,CLR,SCT,0.00,0.0,WeatherDisplay:10.37,2013-01-08 13:20:00,
2013-01-08 03:30:00,61.2,56.3,29.86,ENE,75,5.0,10.0,84,0.00,CLR,SCT,0.00,0.0,WeatherDisplay:10.37,2013-01-08 13:30:00,
2013-01-08 03:40:00,62.1,54.8,29.86,SE,125,1.0,8.0,77,0.00,CLR,SCT,0.00,0.0,WeatherDisplay:10.37,2013-01-08 13:40:00,
2013-01-08 03:50:00,61.4,54.2,29.86,ESE,118,2.0,4.0,77,0.00,CLR,SCT,0.00,0.0,WeatherDisplay:10.37,2013-01-08 13:50:00,
2013-01-08 04:00:00,60.7,53.8,29.86,East,91,0.0,4.0,78,0.00,CLR,SCT,0.00,0.0,WeatherDisplay:10.37,2013-01-08 14:00:00,
2013-01-08 04:10:00,60.3,53.8,29.86,East,79,2.0,7.0,79,0.00,CLR,SCT,0.00,0.0,WeatherDisplay:10.37,2013-01-08 14:10:00,
2013-01-08 04:20:00,61.8,55.6,29.86,East,82,5.0,15.0,80,0.00,CLR,SCT,0.00,0.0,WeatherDisplay:10.37,2013-01-08 14:20:00,
2013-01-08 04:30:00,63.5,56.6,29.85,ENE,76,5.0,10.0,78,0.00,CLR,SCT,0.00,0.0,WeatherDisplay:10.37,2013-01-08 14:30:00,
2013-01-08 04:40:00,64.2,57.2,29.85,ENE,70,6.0,12.0,78,0.00,CLR,SCT,0.00,0.0,WeatherDisplay:10.37,2013-01-08 14:40:00,
2013-01-08 04:50:00,63.9,55.8,29.86,SE,133,0.0,6.0,75,0.00,CLR,SCT,0.00,0.0,WeatherDisplay:10.37,2013-01-08 14:50:00,
2013-01-08 05:00:00,62.8,55.5,29.86,ESE,111,5.0,7.0,77,0.00,CLR,SCT,0.00,0.0,WeatherDisplay:10.37,2013-01-08 15:00:00,
2013-01-08 05:10:00,61.9,55.3,29.86,ESE,107,2.0,7.0,79,0.00,CLR,SCT,0.00,0.0,WeatherDisplay:10.37,2013-01-08 15:10:00,
2013-01-08 05:20:00,61.2,54.3,29.86,SE,134,1.0,5.0,78,0.00,CLR,SCT,0.00,0.0,WeatherDisplay:10.37,2013-01-08 15:20:00,
2013-01-08 05:30:00,60.9,54.3,29.85,East,99,3.0,9.0,79,0.00,CLR,SCT,0.00,0.0,WeatherDisplay:10.37,2013-01-08 15:30:00,
2013-01-08 05:40:00,62.0,54.7,29.86,East,87,2.0,9.0,77,0.00,CLR,SCT,0.00,0.0,WeatherDisplay:10.37,2013-01-08 15:40:00,
2013-01-08 05:50:00,63.1,55.0,29.85,ENE,71,6.0,10.0,75,0.00,CLR,SCT,0.00,0.0,WeatherDisplay:10.37,2013-01-08 15:50:00,
2013-01-08 06:00:00,64.0,56.3,29.85,East,83,7.0,13.0,76,0.00,CLR,SCT,0.00,0.0,WeatherDisplay:10.37,2013-01-08 16:00:00,
2013-01-08 06:10:00,63.8,55.4,29.86,ESE,112,0.0,3.0,74,0.00,CLR,SCT,0.00,0.0,WeatherDisplay:10.37,2013-01-08 16:10:00,
2013-01-08 06:20:00,62.6,54.2,29.86,ESE,116,1.0,5.0,74,0.00,CLR,SCT,0.00,0.0,WeatherDisplay:10.37,2013-01-08 16:20:00,
2013-01-08 06:30:00,61.4,53.8,29.86,ESE,115,0.0,2.0,76,0.00,CLR,SCT,0.00,0.0,WeatherDisplay:10.37,2013-01-08 16:30:00,
2013-01-08 06:40:00,60.3,53.8,29.86,ESE,115,0.0,3.0,79,0.00,CLR,SCT,0.00,0.0,WeatherDisplay:10.37,2013-01-08 16:40:00,
2013-01-08 06:50:00,59.6,53.4,29.87,ESE,115,1.0,3.0,80,0.00,CLR,SCT,0.00,0.0,WeatherDisplay:10.37,2013-01-08 16:50:00,
2013-01-08 07:00:00,58.7,53.2,29.87,ESE,121,0.0,3.0,82,0.00,CLR,SCT,0.00,0.0,WeatherDisplay:10.37,2013-01-08 17:00:00,
2013-01-08 07:10:00,58.3,53.2,29.87,ESE,116,3.0,5.0,83,0.00,CLR,SCT,0.00,4.2,WeatherDisplay:10.37,2013-01-08 17:10:00,
2013-01-08 07:20:00,58.4,53.2,29.87,East,91,1.0,6.0,83,0.00,CLR,SCT,0.00,7.2,WeatherDisplay:10.37,2013-01-08 17:20:00,
2013-01-08 07:30:00,59.1,53.3,29.87,ENE,74,0.0,10.0,81,0.00,CLR,SCT,0.00,10.1,WeatherDisplay:10.37,2013-01-08 17:30:00,
2013-01-08 07:40:00,59.6,53.4,29.88,ENE,77,0.0,2.0,80,0.00,CLR,SCT,0.00,12.3,WeatherDisplay:10.37,2013-01-08 17:40:00,
2013-01-08 07:50:00,59.6,54.1,29.88,ESE,113,2.0,4.0,82,0.00,CLR,SCT,0.00,14.4,WeatherDisplay:10.37,2013-01-08 17:50:00,
2013-01-08 08:00:00,60.4,55.2,29.88,SSE,151,1.0,7.0,83,0.00,CLR,SCT,0.00,17.3,WeatherDisplay:10.37,2013-01-08 18:00:00,
2013-01-08 08:10:00,61.8,56.2,29.88,East,92,3.0,7.0,82,0.00,CLR,SCT,0.00,72.2,WeatherDisplay:10.37,2013-01-08 18:10:00,
2013-01-08 08:20:00,64.4,58.4,29.89,ENE,68,3.0,13.0,81,0.00,CLR,SCT,0.00,229.0,WeatherDisplay:10.37,2013-01-08 18:20:00,
2013-01-08 08:30:00,65.7,57.2,29.89,ESE,120,0.0,5.0,74,0.00,CLR,SCT,0.00,241.2,WeatherDisplay:10.37,2013-01-08 18:30:00,
2013-01-08 08:40:00,66.6,59.2,29.89,ENE,60,2.0,5.0,77,0.00,CLR,SCT,0.00,250.5,WeatherDisplay:10.37,2013-01-08 18:40:00,
2013-01-08 08:50:00,68.2,58.1,29.90,East,81,1.0,7.0,70,0.00,CLR,SCT,0.00,259.0,WeatherDisplay:10.37,2013-01-08 18:50:00,
2013-01-08 09:00:00,69.5,56.8,29.90,SW,226,1.0,4.0,64,0.00,CLR,SCT,0.00,266.2,WeatherDisplay:10.37,2013-01-08 19:00:00,
2013-01-08 09:10:00,70.7,57.9,29.90,East,100,2.0,6.0,64,0.00,FEW,SCT,0.00,272.1,WeatherDisplay:10.37,2013-01-08 19:10:00,
2013-01-08 09:20:00,71.7,58.9,29.90,ENE,60,3.0,12.0,64,0.00,FEW,SCT,0.00,280.5,WeatherDisplay:10.37,2013-01-08 19:20:00,
2013-01-08 09:30:00,72.8,58.6,29.90,ENE,61,7.0,12.0,61,0.00,FEW,SCT,0.00,284.8,WeatherDisplay:10.37,2013-01-08 19:30:00,
2013-01-08 09:40:00,72.9,59.2,29.90,ENE,68,6.0,14.0,62,0.00,FEW,SCT,0.00,287.7,WeatherDisplay:10.37,2013-01-08 19:40:00,
2013-01-08 09:50:00,73.6,59.3,29.90,ENE,71,7.0,15.0,61,0.00,FEW,SCT,0.00,290.7,WeatherDisplay:10.37,2013-01-08 19:50:00,
2013-01-08 10:00:00,73.9,59.1,29.90,East,79,8.0,16.0,60,0.00,FEW,SCT,0.00,294.9,WeatherDisplay:10.37,2013-01-08 20:00:00,
2013-01-08 10:10:00,74.6,60.7,29.90,ENE,68,8.0,14.0,62,0.00,FEW,SCT,0.00,297.9,WeatherDisplay:10.37,2013-01-08 20:10:00,
2013-01-08 10:20:00,74.2,61.3,29.90,ENE,71,12.0,21.0,64,0.00,FEW,SCT,0.00,312.6,WeatherDisplay:10.37,2013-01-08 20:20:00,
2013-01-08 10:30:00,73.4,62.2,29.89,East,79,9.0,17.0,68,0.00,FEW,SCT,0.00,304.2,WeatherDisplay:10.37,2013-01-08 20:30:00,
2013-01-08 10:40:00,73.0,62.2,29.89,East,82,10.0,25.0,69,0.00,FEW,SCT,0.00,300.0,WeatherDisplay:10.37,2013-01-08 20:40:00,
2013-01-08 10:50:00,73.1,62.0,29.89,East,85,7.0,20.0,68,0.00,FEW,SCT,0.00,305.5,WeatherDisplay:10.37,2013-01-08 20:50:00,
2013-01-08 11:00:00,73.8,62.2,29.89,ENE,71,10.0,22.0,67,0.00,FEW,SCT,0.00,303.4,WeatherDisplay:10.37,2013-01-08 21:00:00,
2013-01-08 11:10:00,73.8,61.3,29.88,East,81,13.0,22.0,65,0.00,FEW,SCT,0.00,304.2,WeatherDisplay:10.37,2013-01-08 21:10:00,
2013-01-08 11:20:00,73.8,61.7,29.88,ENE,76,8.0,22.0,66,0.00,FEW,SCT,0.00,305.5,WeatherDisplay:10.37,2013-01-08 21:20:00,
2013-01-08 11:30:00,74.9,62.4,29.87,East,84,5.0,16.0,65,0.00,FEW,SCT,0.00,303.4,WeatherDisplay:10.37,2013-01-08 21:30:00,
2013-01-08 11:40:00,75.8,62.3,29.87,East,98,12.0,21.0,63,0.00,FEW,SCT,0.00,309.3,WeatherDisplay:10.37,2013-01-08 21:40:00,
2013-01-08 11:50:00,74.7,62.1,29.86,East,93,8.0,24.0,65,0.00,FEW,SCT,0.00,308.4,WeatherDisplay:10.37,2013-01-08 21:50:00,
2013-01-08 12:00:00,74.5,62.0,29.86,ENE,78,9.0,22.0,65,0.00,FEW,SCT,0.00,304.2,WeatherDisplay:10.37,2013-01-08 22:00:00,
2013-01-08 12:10:00,74.8,60.9,29.85,East,87,14.0,18.0,62,0.00,FEW,SCT,0.00,305.5,WeatherDisplay:10.37,2013-01-08 22:10:00,
2013-01-08 12:20:00,75.1,60.3,29.84,East,87,14.0,22.0,60,0.00,FEW,SCT,0.00,305.5,WeatherDisplay:10.37,2013-01-08 22:20:00,
2013-01-08 12:30:00,75.1,58.8,29.84,East,93,14.0,23.0,57,0.00,FEW,SCT,0.00,253.5,WeatherDisplay:10.37,2013-01-08 22:30:00,
2013-01-08 12:40:00,75.6,60.7,29.83,East,87,9.0,21.0,60,0.00,FEW,SCT,0.00,302.1,WeatherDisplay:10.37,2013-01-08 22:40:00,
2013-01-08 12:50:00,76.1,60.7,29.82,ENE,78,14.0,23.0,59,0.00,FEW,SCT,0.00,302.1,WeatherDisplay:10.37,2013-01-08 22:50:00,
2013-01-08 13:00:00,76.0,62.0,29.82,ENE,76,14.0,24.0,62,0.00,FEW,SCT,0.00,301.2,WeatherDisplay:10.37,2013-01-08 23:00:00,
2013-01-08 13:10:00,75.5,61.6,29.82,ENE,76,13.0,22.0,62,0.00,FEW,SCT,0.00,285.6,WeatherDisplay:10.37,2013-01-08 23:10:00,
2013-01-08 13:20:00,75.4,62.4,29.81,East,79,15.0,26.0,64,0.00,FEW,SCT,0.00,308.4,WeatherDisplay:10.37,2013-01-08 23:20:00,
2013-01-08 13:30:00,74.7,62.2,29.81,East,85,15.0,24.0,65,0.00,FEW,SCT,0.00,310.5,WeatherDisplay:10.37,2013-01-08 23:30:00,
2013-01-08 13:40:00,74.4,62.7,29.81,East,84,12.0,21.0,67,0.00,FEW,SCT,0.00,296.2,WeatherDisplay:10.37,2013-01-08 23:40:00,
2013-01-08 13:50:00,74.7,63.0,29.81,East,82,10.0,20.0,67,0.00,FEW,SCT,0.00,300.0,WeatherDisplay:10.37,2013-01-08 23:50:00,
2013-01-08 14:00:00,75.2,63.0,29.81,ENE,75,9.0,22.0,66,0.00,FEW,SCT,0.00,57.9,WeatherDisplay:10.37,2013-01-09 00:00:00,
2013-01-08 14:10:00,74.5,62.0,29.80,East,82,13.0,25.0,65,0.00,FEW,SCT,0.00,305.5,WeatherDisplay:10.37,2013-01-09 00:10:00,
2013-01-08 14:20:00,74.6,62.1,29.81,ENE,69,13.0,26.0,65,0.00,FEW,SCT,0.00,329.1,WeatherDisplay:10.37,2013-01-09 00:20:00,
2013-01-08 14:30:00,74.7,63.4,29.82,East,80,10.0,22.0,68,0.00,FEW,SCT,0.00,292.8,WeatherDisplay:10.37,2013-01-09 00:30:00,
2013-01-08 14:40:00,74.8,63.5,29.82,ENE,74,12.0,20.0,68,0.00,SCT,SCT,0.00,301.2,WeatherDisplay:10.37,2013-01-09 00:40:00,
2013-01-08 14:50:00,72.2,63.5,29.82,ENE,70,10.0,24.0,74,0.00,SCT,SCT,0.00,61.7,WeatherDisplay:10.37,2013-01-09 00:50:00,
2013-01-08 15:00:00,71.2,62.9,29.82,East,91,14.0,21.0,75,0.00,SCT,SCT,0.00,270.4,WeatherDisplay:10.37,2013-01-09 01:00:00,
2013-01-08 15:10:00,70.4,62.9,29.83,East,91,18.0,26.0,77,0.00,SCT,SCT,0.00,47.3,WeatherDisplay:10.37,2013-01-09 01:10:00,
2013-01-08 15:20:00,69.6,63.1,29.82,East,92,8.0,27.0,80,0.00,SCT,SCT,0.00,262.8,WeatherDisplay:10.37,2013-01-09 01:20:00,
2013-01-08 15:30:00,70.7,63.1,29.82,ENE,70,7.0,14.0,77,0.00,SCT,SCT,0.00,266.2,WeatherDisplay:10.37,2013-01-09 01:30:00,
2013-01-08 15:40:00,71.3,63.4,29.82,East,84,9.0,16.0,76,0.00,SCT,SCT,0.00,262.0,WeatherDisplay:10.37,2013-01-09 01:40:00,
2013-01-08 15:50:00,71.4,63.0,29.83,East,80,10.0,18.0,75,0.00,SCT,SCT,0.00,44.4,WeatherDisplay:10.37,2013-01-09 01:50:00,
2013-01-08 16:00:00,70.4,62.1,29.83,East,97,3.0,12.0,75,0.00,SCT,SCT,0.00,33.0,WeatherDisplay:10.37,2013-01-09 02:00:00,
2013-01-08 16:10:00,69.7,61.0,29.84,East,97,8.0,15.0,74,0.00,SCT,SCT,0.00,35.1,WeatherDisplay:10.37,2013-01-09 02:10:00,
2013-01-08 16:20:00,69.8,60.8,29.84,East,89,9.0,17.0,73,0.00,SCT,SCT,0.00,27.9,WeatherDisplay:10.37,2013-01-09 02:20:00,
2013-01-08 16:30:00,69.5,61.2,29.84,NE,50,10.0,17.0,75,0.00,SCT,SCT,0.00,220.5,WeatherDisplay:10.37,2013-01-09 02:30:00,
2013-01-08 16:40:00,69.7,62.5,29.85,ENE,58,10.0,17.0,78,0.00,SCT,SCT,0.00,49.4,WeatherDisplay:10.37,2013-01-09 02:40:00,
2013-01-08 16:50:00,68.3,62.9,29.85,ENE,72,9.0,17.0,83,0.00,SCT,SCT,0.00,22.8,WeatherDisplay:10.37,2013-01-09 02:50:00,
2013-01-08 17:00:00,67.2,62.9,29.85,East,83,5.0,18.0,86,0.00,SCT,SCT,0.00,22.8,WeatherDisplay:10.37,2013-01-09 03:00:00,
2013-01-08 17:10:00,66.7,62.4,29.86,East,80,6.0,16.0,86,0.00,SCT,SCT,0.00,25.8,WeatherDisplay:10.37,2013-01-09 03:10:00,
2013-01-08 17:20:00,66.5,62.8,29.86,East,80,9.0,17.0,88,0.00,SCT,SCT,0.00,6.3,WeatherDisplay:10.37,2013-01-09 03:20:00,
2013-01-08 17:30:00,65.8,62.1,29.86,ENE,78,8.0,17.0,88,0.01,RA,SCT,0.01,19.4,WeatherDisplay:10.37,2013-01-09 03:30:00,
2013-01-08 17:40:00,65.6,61.9,29.86,ENE,61,6.0,14.0,88,0.00,SCT,SCT,0.01,14.4,WeatherDisplay:10.37,2013-01-09 03:40:00,
2013-01-08 17:50:00,65.8,62.1,29.86,ENE,68,10.0,16.0,88,0.00,SCT,SCT,0.01,7.2,WeatherDisplay:10.37,2013-01-09 03:50:00,
2013-01-08 18:00:00,65.7,62.4,29.86,East,82,1.0,8.0,89,0.01,RA,SCT,0.02,0.0,WeatherDisplay:10.37,2013-01-09 04:00:00,
2013-01-08 18:10:00,65.6,62.6,29.86,ENE,62,1.0,7.0,90,0.00,SCT,SCT,0.02,0.0,WeatherDisplay:10.37,2013-01-09 04:10:00,
2013-01-08 18:20:00,65.7,62.3,29.87,ESE,108,6.0,13.0,89,0.00,SCT,SCT,0.02,0.0,WeatherDisplay:10.37,2013-01-09 04:20:00,
2013-01-08 18:30:00,65.7,62.4,29.87,East,89,7.0,17.0,89,0.00,SCT,SCT,0.02,0.0,WeatherDisplay:10.37,2013-01-09 04:30:00,
2013-01-08 18:40:00,65.5,62.2,29.87,ESE,105,14.0,21.0,89,0.00,SCT,SCT,0.02,0.0,WeatherDisplay:10.37,2013-01-09 04:40:00,
2013-01-08 18:50:00,65.3,62.0,29.88,ESE,119,10.0,16.0,89,0.01,RA,SCT,0.03,0.0,WeatherDisplay:10.37,2013-01-09 04:50:00,
2013-01-08 19:00:00,65.1,61.8,29.87,ESE,117,8.0,18.0,89,0.00,SCT,SCT,0.03,0.0,WeatherDisplay:10.37,2013-01-09 05:00:00,
2013-01-08 19:10:00,65.1,62.1,29.89,East,101,6.0,16.0,90,0.00,SCT,SCT,0.03,0.0,WeatherDisplay:10.37,2013-01-09 05:10:00,
2013-01-08 19:20:00,65.3,62.3,29.89,East,98,6.0,20.0,90,0.01,RA,SCT,0.04,0.0,WeatherDisplay:10.37,2013-01-09 05:20:00,
2013-01-08 19:30:00,65.1,62.1,29.89,East,101,3.0,13.0,90,0.00,SCT,SCT,0.04,0.0,WeatherDisplay:10.37,2013-01-09 05:30:00,
2013-01-08 19:40:00,65.0,62.0,29.90,East,99,8.0,13.0,90,0.00,SCT,SCT,0.04,0.0,WeatherDisplay:10.37,2013-01-09 05:40:00,
2013-01-08 19:50:00,65.2,61.9,29.90,East,100,8.0,20.0,89,0.01,RA,SCT,0.05,0.0,WeatherDisplay:10.37,2013-01-09 05:50:00,
2013-01-08 20:00:00,65.0,61.7,29.90,East,96,12.0,18.0,89,0.00,SCT,SCT,0.05,0.0,WeatherDisplay:10.37,2013-01-09 06:00:00,
2013-01-08 20:10:00,64.9,61.6,29.90,ESE,108,7.0,20.0,89,0.01,RA,SCT,0.06,0.0,WeatherDisplay:10.37,2013-01-09 06:10:00,
2013-01-08 20:20:00,64.8,61.5,29.90,East,100,7.0,18.0,89,0.00,SCT,SCT,0.06,0.0,WeatherDisplay:10.37,2013-01-09 06:20:00,
2013-01-08 20:30:00,64.8,61.5,29.91,East,97,5.0,18.0,89,0.00,SCT,SCT,0.06,0.0,WeatherDisplay:10.37,2013-01-09 06:30:00,
2013-01-08 20:40:00,64.8,62.1,29.91,East,99,6.0,18.0,91,0.00,SCT,SCT,0.06,0.0,WeatherDisplay:10.37,2013-01-09 06:40:00,
2013-01-08 20:50:00,64.6,61.6,29.91,ESE,110,8.0,18.0,90,0.00,SCT,SCT,0.06,0.0,WeatherDisplay:10.37,2013-01-09 06:50:00,
2013-01-08 21:00:00,64.5,61.8,29.91,East,100,9.0,15.0,91,0.01,RA,SCT,0.07,0.0,WeatherDisplay:10.37,2013-01-09 07:00:00,
2013-01-08 21:10:00,64.8,62.1,29.91,ESE,103,9.0,18.0,91,0.00,FEW,SCT,0.07,0.0,WeatherDisplay:10.37,2013-01-09 07:10:00,
2013-01-08 21:20:00,64.9,61.9,29.91,East,90,16.0,25.0,90,0.01,RA,SCT,0.08,0.0,WeatherDisplay:10.37,2013-01-09 07:20:00,
2013-01-08 21:30:00,65.0,61.7,29.91,East,90,8.0,20.0,89,0.00,FEW,SCT,0.08,0.0,WeatherDisplay:10.37,2013-01-09 07:30:00,
2013-01-08 21:40:00,65.0,62.0,29.91,East,86,10.0,22.0,90,0.00,FEW,SCT,0.08,0.0,WeatherDisplay:10.37,2013-01-09 07:40:00,
2013-01-08 21:50:00,64.9,61.9,29.91,East,95,9.0,21.0,90,0.00,FEW,SCT,0.08,0.0,WeatherDisplay:10.37,2013-01-09 07:50:00,
2013-01-08 22:00:00,64.7,61.7,29.92,East,95,8.0,22.0,90,0.00,FEW,SCT,0.08,0.0,WeatherDisplay:10.37,2013-01-09 08:00:00,
2013-01-08 22:10:00,64.7,61.7,29.92,East,100,5.0,12.0,90,0.00,CLR,SCT,0.08,0.0,WeatherDisplay:10.37,2013-01-09 08:10:00,
2013-01-08 22:20:00,64.7,61.7,29.92,East,100,5.0,15.0,90,0.00,CLR,SCT,0.08,0.0,WeatherDisplay:10.37,2013-01-09 08:20:00,
2013-01-08 22:30:00,64.8,61.2,29.91,East,96,8.0,12.0,88,0.00,CLR,SCT,0.08,0.0,WeatherDisplay:10.37,2013-01-09 08:30:00,
2013-01-08 22:40:00,65.0,61.4,29.91,ENE,75,6.0,17.0,88,0.00,CLR,SCT,0.08,0.0,WeatherDisplay:10.37,2013-01-09 08:40:00,
2013-01-08 22:50:00,65.2,61.6,29.91,East,82,9.0,17.0,88,0.00,CLR,SCT,0.08,0.0,WeatherDisplay:10.37,2013-01-09 08:50:00,
2013-01-08 23:00:00,65.3,61.7,29.92,East,87,6.0,14.0,88,0.00,CLR,SCT,0.08,0.0,WeatherDisplay:10.37,2013-01-09 09:00:00,
2013-01-08 23:10:00,65.2,62.2,29.92,East,88,7.0,14.0,90,0.00,CLR,SCT,0.09,0.0,WeatherDisplay:10.37,2013-01-09 09:10:00,
2013-01-08 23:20:00,65.0,62.0,29.91,East,81,8.0,14.0,90,0.01,RA,SCT,0.09,0.0,WeatherDisplay:10.37,2013-01-09 09:20:00,
2013-01-08 23:30:00,64.9,61.9,29.91,East,83,8.0,14.0,90,0.00,CLR,SCT,0.09,0.0,WeatherDisplay:10.37,2013-01-09 09:30:00,
2013-01-08 23:40:00,65.1,61.8,29.91,East,84,13.0,18.0,89,0.00,CLR,SCT,0.09,0.0,WeatherDisplay:10.37,2013-01-09 09:40:00,
2013-01-08 23:50:00,65.1,62.1,29.91,ENE,78,10.0,18.0,90,0.00,CLR,SCT,0.09,0.0,WeatherDisplay:10.37,2013-01-09 09:50:00,